Regional Weather Roundup
Issued by NWS

Home | Current Version | Previous Version | Text Only | Print | Product List | Glossary Off
Versions: 1 2 3 4 5 6 7 8 9 10 11 12 13 14 15 16 17 18 19 20 21 22 23 24 25 26 27 28 29 30 31 32 33 34 35 36 37 38 39 40 41 42 43 44 45 46 47 48 49 50

000
ASUS43 KOAX 191802
RWRNE

WEATHER ROUNDUP FOR NEBRASKA
NATIONAL WEATHER SERVICE OMAHA NE
100 PM CDT TUE SEP 19 2017

NOTES: SATELLITE DATA IS BEING USED TO AUGMENT CLOUD COVER ABOVE
       12000 FEET.
       "FAIR" INDICATES FEW OR NO CLOUDS BELOW 12,000 FEET WITH NO
       SIGNIFICANT WEATHER AND/OR OBSTRUCTIONS TO VISIBILITY.


NEZ001>004-019>022-054>056-191900-
NEBRASKA PANHANDLE

CITY           SKY/WX    TMP DP  RH WIND       PRES   REMARKS
SCOTTSBLUFF    CLOUDY    66  52  60 E8        29.59F
6HR MIN TEMP:  53; 6HR MAX TEMP:  66;

ALLIANCE       CLOUDY    66  55  67 S9        29.60F
6HR MIN TEMP:  53; 6HR MAX TEMP:  66;

CHADRON        CLOUDY    77  39  25 W12       29.54F
6HR MIN TEMP:  61; 6HR MAX TEMP:  77;

GORDON         FAIR      68  55  64 W10       29.58S
6HR MIN TEMP:  60; 6HR MAX TEMP:  68;

KIMBALL        CLOUDY    78  31  18 SW14G22   29.65F
SIDNEY         CLOUDY    72  47  40 SW6       29.64F
6HR MIN TEMP:  50; 6HR MAX TEMP:  72;

$$

NEZ057>060-069>072-079>082-191900-
SOUTHWEST NEBRASKA

CITY           SKY/WX    TMP DP  RH WIND       PRES   REMARKS
NORTH PLATTE   CLOUDY    80  62  54 SE13      29.59F
6HR MIN TEMP:  60; 6HR MAX TEMP:  81;

IMPERIAL       CLOUDY    85  43  22 S7        29.61F
6HR MIN TEMP:  62; 6HR MAX TEMP:  85;

LEXINGTON      CLOUDY    83  62  47 SE18      29.60F
MCCOOK         CLOUDY    89  57  33 S15G22    29.58F
6HR MIN TEMP:  66; 6HR MAX TEMP:  89;

OGALLALA       CLOUDY    76  50  40 S8        29.61F
$$

NEZ005>010-023>029-035>040-094-191900-
NORTH CENTRAL NEBRASKA

CITY           SKY/WX    TMP DP  RH WIND       PRES   REMARKS
VALENTINE      CLOUDY    74  62  66 S18       29.55F
6HR MIN TEMP:  62; 6HR MAX TEMP:  74;

AINSWORTH      CLOUDY    75  65  70 S17G24    29.58S
BROKEN BOW     CLOUDY    80  64  58 S20G25    29.60F
6HR MIN TEMP:  59; 6HR MAX TEMP:  80;

O`NEILL        MOSUNNY   78  68  70 SE18G28   29.60F
ORD            CLOUDY    79  64  60 SE16G25   29.59F
6HR MIN TEMP:  60; 6HR MAX TEMP:  80;

$$

NEZ041-046>049-061>064-073>077-083>087-191900-
SOUTH CENTRAL NEBRASKA

CITY           SKY/WX    TMP DP  RH WIND       PRES   REMARKS
GRAND ISLAND   SUNNY     83  68  60 S16       29.64F
6HR MIN TEMP:  63; 6HR MAX TEMP:  83;

AURORA         SUNNY     83  66  55 S21G26    29.66F
HASTINGS       SUNNY     84  64  50 S13G23    29.65F
6HR MIN TEMP:  63; 6HR MAX TEMP:  84;

HEBRON         SUNNY     87  66  49 S13G25    29.68F HX  90
HOLDREGE       SUNNY     82  60  46 S14G22    29.62F
KEARNEY        SUNNY     84  64  50 S21G28    29.62F
YORK           SUNNY     84  66  54 S18G25    29.66F
$$

NEZ011>018-030>034-042>045-191900-
NORTHEAST NEBRASKA

CITY           SKY/WX    TMP DP  RH WIND       PRES   REMARKS
NORFOLK        CLOUDY    79  68  69 SE21      29.64F
6HR MIN TEMP:  63; 6HR MAX TEMP:  79;

ALBION         CLOUDY    80  69  70 SE13G23   29.64F
BLAIR          SUNNY     82  69  63 SE16G23   29.73F
COLUMBUS       SUNNY     83  69  62 SE20      29.66F
FREMONT        SUNNY     82  68  62 SE17G24   29.71F
TEKAMAH        SUNNY     83  68  60 SE17G23   29.71F
6HR MIN TEMP:  67; 6HR MAX TEMP:  83;

WAYNE          CLOUDY    79  72  79 SE21      29.67F
$$

NEZ050>053-065>068-078-088>093-191900-
SOUTHEAST NEBRASKA

CITY           SKY/WX    TMP DP  RH WIND       PRES   REMARKS
LINCOLN        SUNNY     87  66  49 SE21G29   29.69F
6HR MIN TEMP:  66; 6HR MAX TEMP:  87;

OMAHA EPPLEY   MOSUNNY   84  68  58 SE22      29.73F
6HR MIN TEMP:  68; 6HR MAX TEMP:  84;

BEATRICE       SUNNY     88  68  51 SE16G22   29.70F HX  91
FALLS CITY     SUNNY     86  67  52 SE17G28   29.76F
6HR MIN TEMP:  65; 6HR MAX TEMP:  86;

NEBRASKA CITY  SUNNY     83  71  65 SE16      29.75F
PLATTSMOUTH    SUNNY     84  69  61 SE15G21   29.75F
$$

NEZ044-045-051>053-067-191900-
OMAHA AREA

CITY           SKY/WX    TMP DP  RH WIND       PRES   REMARKS
OMAHA EPPLEY   MOSUNNY   84  68  58 SE22      29.73F
6HR MIN TEMP:  68; 6HR MAX TEMP:  84;

BLAIR          SUNNY     82  69  63 SE16G23   29.73F
FREMONT        SUNNY     82  68  62 SE17G24   29.71F
MILLARD        SUNNY     84  70  62 SE15G23   29.73F
OFFUTT AFB     SUNNY     84  68  58 SE22G28   29.73F
PLATTSMOUTH    SUNNY     84  69  61 SE15G21   29.75F
WAHOO          FAIR      84  67  56 SE17G28   29.70F
$$




USA.gov is the U.S. government's official web portal to all federal, state and local government web resources and services.